Theta_e
309 310 311 312 313 313 314 313 313 314 315 314 312 311 312 315 318 319 318 321 323 325 322 326 328 329 331 329 335 334 341 347 345 343 341 341 343 342 339 341 340 337 338 325 324
310 310 312 313 313 314 314 314 313 314 315 316 312 312 312 316 319 322 320 325 325 322 322 325 325 325 325 331 338 338 339 341 342 341 338 339 342 343 344 342 341 336 327 324 323
310 310 312 313 314 314 314 314 313 314 315 316 313 312 313 318 332 329 326 325 325 321 321 323 324 328 332 332 337 335 337 337 340 338 336 342 344 343 343 344 342 328 325 324 323
309 311 312 313 314 314 314 314 314 313 316 314 312 312 314 322 332 328 327 325 322 321 322 323 328 333 333 334 334 336 334 336 338 339 338 341 340 342 342 341 338 327 326 325 323
309 311 312 313 314 315 315 315 314 314 316 315 312 312 316 325 328 330 324 321 322 321 322 321 328 333 337 340 338 336 337 335 337 336 339 341 343 343 342 338 330 327 327 325 324
309 311 312 313 314 315 315 315 314 315 318 315 315 313 326 328 328 327 322 322 323 323 323 323 332 334 336 338 339 339 337 337 335 339 341 344 344 344 344 336 329 328 327 325 326
308 310 312 314 314 315 315 315 315 317 318 315 316 316 324 321 327 324 324 325 324 324 326 334 335 335 333 335 335 338 336 337 339 340 343 342 346 347 344 341 331 329 328 327 327
308 310 312 313 314 315 316 316 317 320 318 316 316 320 319 326 325 324 326 326 326 325 323 334 336 334 335 333 335 342 341 338 337 339 341 341 347 347 344 343 340 332 329 329 329
309 310 312 313 314 315 316 318 320 321 319 318 322 323 321 325 324 326 325 325 325 326 325 328 336 333 332 332 334 336 341 345 343 339 341 338 341 346 344 343 343 334 331 330 331
309 310 312 313 314 315 316 320 319 320 323 321 321 321 322 325 325 326 327 326 325 324 325 326 331 333 332 329 334 339 342 341 346 341 340 340 339 347 345 345 343 339 333 331 331
309 310 312 313 314 315 317 320 315 315 319 319 321 322 323 325 325 326 327 326 325 324 325 325 324 324 329 330 332 338 340 341 340 340 337 339 340 347 345 344 344 341 338 333 331
309 310 312 313 314 316 319 318 318 319 317 318 318 319 321 323 325 325 326 326 325 324 324 324 324 325 326 333 335 337 338 337 337 339 334 338 343 345 345 344 343 341 340 335 332
309 310 312 313 314 319 318 320 320 320 317 320 321 321 321 323 324 325 324 324 325 325 325 325 325 327 329 336 339 332 332 338 338 339 339 338 339 349 345 343 341 339 340 339 335
309 310 312 313 316 316 319 320 320 320 322 325 325 322 322 323 324 324 326 325 325 325 325 324 325 327 332 334 332 334 332 334 339 337 341 338 338 346 347 347 343 340 340 338 337
309 311 312 312 314 316 318 319 321 321 334 331 320 322 319 322 324 327 326 325 325 325 326 326 326 325 329 333 333 333 333 336 339 339 337 341 343 346 345 345 344 342 336 337 336
309 311 312 312 312 315 315 320 321 325 333 323 319 321 320 322 323 324 328 326 325 325 325 324 325 327 328 332 333 335 339 334 336 338 345 339 340 345 343 340 340 340 338 337 338
310 311 312 312 313 315 314 319 324 327 328 320 319 321 319 320 321 323 324 326 325 326 324 325 327 330 333 333 331 331 331 333 334 340 346 340 343 339 340 338 339 337 337 338 338
310 312 312 312 313 314 316 321 329 330 332 327 320 321 322 320 320 323 324 324 325 324 324 325 326 332 333 332 333 333 331 333 340 341 337 340 341 338 334 335 334 334 333 336 336
311 313 313 315 319 318 315 325 327 331 327 329 326 320 319 320 321 321 323 324 324 323 324 325 326 331 333 333 332 334 337 333 334 333 332 334 337 336 337 337 337 334 333 332 332
310 311 314 316 321 321 317 322 327 329 325 329 328 330 326 321 321 320 321 324 327 325 323 325 328 333 333 334 333 332 333 334 336 339 338 338 336 338 336 339 337 333 334 334 336
310 313 320 321 320 315 318 321 325 325 325 328 328 327 332 333 323 321 322 325 327 326 325 325 327 328 332 333 333 334 338 338 336 335 339 342 334 332 335 334 336 334 334 333 338
314 318 323 322 314 315 317 321 324 325 324 326 326 327 333 331 331 331 332 332 332 328 333 332 329 335 334 331 331 333 335 334 338 340 336 336 336 335 333 335 332 335 334 336 337
313 318 323 321 315 314 318 324 327 323 326 327 330 329 331 331 331 332 332 330 334 334 333 333 335 334 333 331 332 334 332 336 334 333 337 336 335 338 336 335 333 333 333 334 336
312 322 318 316 314 320 321 323 326 321 324 324 326 329 331 331 332 328 333 332 338 333 332 332 332 331 333 331 331 332 333 335 332 335 336 335 333 339 339 336 335 333 330 330 332
311 317 321 321 321 320 319 322 325 325 324 324 327 331 331 332 335 338 338 338 333 331 332 329 331 335 334 334 334 335 333 333 337 336 337 334 334 335 338 334 335 332 330 332 332
312 320 316 322 324 319 318 322 326 326 324 324 327 328 337 340 338 338 334 334 341 335 333 332 328 336 337 339 338 336 333 334 333 335 336 338 341 338 338 335 335 334 334 333 331
316 320 321 324 324 324 322 323 324 325 325 326 326 333 341 339 337 335 331 330 333 336 333 340 336 339 339 338 334 333 334 336 340 339 335 341 339 338 339 336 334 333 332 332 329
Wind_Speed
21 23 24 26 27 29 31 34 31 29 22 17 10 11 12 11 7 2 4 4 5 5 4 3 7 10 13 5 7 6 4 4 6 7 5 2 5 1 4 7 1 3 5 17 24
21 23 24 26 27 29 31 34 32 31 21 17 11 10 11 10 2 5 4 5 5 3 2 1 4 5 4 4 3 5 3 8 6 7 8 7 15 9 5 3 1 10 14 18 24
21 23 23 25 27 29 31 33 31 30 23 17 11 9 10 8 1 4 10 10 6 6 4 6 8 2 6 3 2 5 6 7 5 6 6 12 10 4 13 5 10 16 11 16 21
21 23 23 26 27 30 32 32 30 28 24 17 11 8 8 3 3 3 8 9 7 3 4 2 4 3 4 5 4 5 6 7 6 7 8 12 10 5 5 7 8 13 17 16 14
22 22 23 25 28 30 32 33 30 28 22 14 11 7 3 3 5 5 9 10 7 2 5 3 2 6 7 3 2 5 5 4 11 10 7 8 9 7 4 12 14 18 12 10 13
21 22 23 26 28 30 33 34 31 30 19 9 9 5 2 1 4 6 11 10 6 2 6 6 6 6 7 4 3 2 4 2 7 10 10 11 5 7 5 12 14 13 11 11 16
21 21 23 26 29 31 34 36 30 29 12 5 7 2 2 7 3 8 9 7 8 8 2 3 8 4 5 5 3 3 5 5 6 7 5 13 2 5 11 10 13 12 12 11 16
21 21 24 26 28 31 35 35 38 14 7 4 5 1 4 1 6 11 9 9 11 13 15 8 6 7 5 5 5 5 6 3 4 8 8 6 6 9 13 13 12 12 14 14 16
21 22 24 26 29 32 35 33 27 7 4 4 2 1 5 1 9 11 13 9 10 13 17 11 2 4 4 4 4 6 1 1 7 7 6 6 3 13 16 15 13 13 13 13 10
21 22 24 27 28 31 33 29 16 5 4 3 1 2 4 4 7 11 12 10 4 5 5 4 5 4 4 3 4 5 4 3 5 4 8 7 8 15 16 15 14 13 13 14 14
20 23 24 27 28 29 29 26 10 5 2 5 5 4 10 11 10 8 9 2 3 5 2 5 4 8 12 11 6 7 2 4 8 6 3 6 8 16 17 14 10 12 14 13 15
20 23 25 26 27 26 15 6 7 6 7 12 10 7 20 11 3 4 7 2 2 2 4 6 6 14 13 9 8 6 6 7 7 6 6 6 8 13 16 19 18 16 15 14 11
20 22 24 27 26 6 22 11 25 14 2 8 6 5 6 8 4 6 8 3 2 3 4 4 11 18 3 4 4 6 8 3 4 3 4 2 5 4 1 6 8 10 15 13 16
20 21 23 29 7 24 11 27 29 15 4 6 4 6 4 3 2 7 12 5 1 6 4 6 4 11 6 2 4 2 2 6 4 2 2 3 2 4 6 9 10 12 13 9 14
19 21 21 23 18 10 16 29 27 2 3 2 4 3 6 7 2 3 13 4 7 7 4 11 8 9 7 5 4 5 5 3 4 5 3 5 4 5 2 12 14 9 10 10 15
19 20 23 16 19 13 24 26 6 5 3 3 7 5 4 4 4 3 4 2 5 5 1 9 2 4 5 4 4 6 2 9 5 3 3 3 4 4 5 9 5 10 16 13 15
20 21 24 23 7 17 23 8 5 3 6 4 5 3 6 5 5 5 4 2 6 1 6 7 5 8 2 6 5 6 7 4 5 5 4 5 1 7 5 11 16 15 9 18 15
22 23 23 25 22 23 11 5 2 5 6 4 4 4 7 6 7 5 3 6 3 4 3 1 12 1 4 3 3 6 6 4 2 3 3 5 3 4 6 7 6 8 5 7 14
23 19 16 18 7 4 5 3 5 4 4 7 4 3 4 4 5 5 5 6 9 10 8 4 7 5 4 4 3 3 4 3 5 4 2 3 5 1 4 6 7 9 18 11 8
20 12 15 11 6 3 5 4 4 4 4 5 4 3 3 4 7 7 7 6 5 10 6 7 3 4 4 7 10 6 3 3 4 2 4 5 4 4 5 6 4 13 5 7 4
9 4 5 7 14 5 2 6 6 10 4 3 2 3 4 3 5 5 6 4 4 4 9 6 6 9 3 0 7 1 2 5 4 5 4 3 6 6 5 8 4 7 4 5 3
4 2 2 26 3 1 2 5 7 8 4 4 3 1 3 4 6 2 4 1 7 4 4 2 5 3 4 7 4 5 6 6 5 4 2 4 6 6 5 6 8 3 3 7 7
1 4 2 9 2 2 5 8 5 3 5 5 5 2 3 3 4 3 1 1 5 5 3 1 3 3 6 7 4 3 3 4 5 3 5 5 6 1 3 3 1 4 7 3 5
2 2 4 4 2 4 1 6 4 3 1 3 3 2 6 7 4 4 6 4 5 3 5 8 3 6 6 6 3 5 11 8 5 4 4 6 6 6 3 1 5 5 2 9 5
1 4 3 3 5 6 5 3 6 4 2 3 5 3 3 4 5 6 7 7 6 4 3 5 2 1 4 5 2 6 8 6 6 5 7 5 6 3 4 7 6 4 5 5 1
1 1 5 4 5 5 7 4 2 3 1 4 3 6 7 4 2 2 4 5 1 5 2 3 2 1 4 4 6 3 6 13 8 4 2 8 4 4 2 1 5 3 5 7 7
3 4 3 5 4 2 4 6 5 2 5 4 3 3 7 4 3 3 4 3 4 2 3 2 3 3 4 4 5 5 5 2 3 6 3 5 6 5 3 7 6 7 6 6 8
Wind_Direction
354 354 355 355 358 359 358 358 357 358 359 356 355 356 345 343 326 317 232 210 212 258 230 238 269 247 187 141 123 122 73 150 183 152 229 175 152 20 30 108 6 83 88 119 117
349 349 350 352 353 355 356 356 357 356 358 355 356 360 347 344 330 247 187 213 234 272 243 254 286 324 109 150 102 93 112 211 184 167 181 185 126 152 123 116 99 96 112 119 111
346 345 346 346 349 350 352 354 355 355 357 352 353 1 349 344 69 253 212 222 242 236 262 329 322 18 65 111 195 170 175 173 206 177 178 155 136 140 144 175 167 146 130 123 109
343 340 342 341 345 345 346 350 351 348 351 355 354 4 352 345 141 285 186 210 229 236 338 64 77 38 82 29 39 50 14 143 167 191 164 148 145 137 181 186 148 132 126 116 110
337 339 337 337 340 340 340 344 348 343 340 349 353 2 32 16 254 232 179 190 202 101 271 76 325 160 86 72 11 78 2 63 139 128 126 124 139 133 112 121 122 130 124 131 133
334 335 333 334 336 336 335 338 343 341 330 330 349 0 74 14 259 195 170 192 206 153 305 179 208 169 113 105 89 170 117 159 135 147 134 131 152 116 190 137 140 143 156 153 149
331 332 330 332 332 333 333 335 339 336 333 325 347 359 97 230 230 159 179 210 223 159 227 220 175 115 112 116 282 60 91 17 142 153 127 116 223 191 167 162 160 164 168 153 164
330 329 328 328 330 332 332 334 336 336 338 336 335 250 234 273 245 201 208 252 266 257 238 204 109 85 62 124 19 31 63 49 218 153 167 122 242 181 175 177 183 180 171 168 180
329 326 325 325 329 331 333 337 339 342 337 335 35 44 262 294 187 230 226 232 290 288 249 209 85 105 58 77 27 346 16 152 311 206 141 199 246 183 180 186 199 187 185 175 175
326 323 324 323 327 332 336 340 351 88 49 33 298 25 269 219 197 207 214 257 272 335 13 150 70 93 34 108 244 207 208 225 231 273 184 201 240 181 191 199 203 193 193 183 182
325 321 322 322 325 333 338 348 13 352 24 212 251 262 286 328 172 200 201 316 8 62 13 342 21 279 224 202 189 183 321 158 263 214 107 267 251 191 192 206 215 208 193 185 191
322 321 321 322 324 330 340 333 284 290 317 277 245 249 267 265 333 222 194 132 38 291 3 4 294 269 279 184 213 171 174 218 250 93 137 215 253 191 195 205 211 204 204 188 178
320 321 324 322 324 335 328 351 355 349 330 296 226 203 232 143 213 226 146 167 214 300 283 150 264 304 243 145 212 250 131 211 186 97 32 299 35 77 7 335 296 264 213 201 177
319 323 327 328 329 332 316 342 345 336 50 276 205 252 186 121 266 211 194 151 266 233 278 261 289 345 14 288 146 55 164 168 165 97 7 354 316 19 337 292 289 267 239 205 191
318 320 322 330 311 312 328 337 334 15 50 228 198 225 154 151 180 267 193 112 235 261 75 276 283 323 252 251 152 207 134 122 83 85 96 2 77 277 155 260 250 262 236 214 195
315 317 318 319 308 296 333 332 351 44 286 266 174 192 132 181 231 285 176 142 206 244 267 250 42 247 237 1 59 122 144 36 52 55 30 243 157 234 183 230 297 258 222 204 195
312 311 306 298 264 310 327 355 46 125 308 204 179 153 159 211 257 168 239 234 179 147 287 335 325 321 342 20 14 87 46 356 1 1 232 228 53 249 216 235 233 239 247 209 183
312 310 301 283 285 292 326 50 84 252 273 273 153 156 181 179 233 186 198 205 250 144 116 126 316 83 279 162 182 78 116 154 353 314 289 272 284 272 219 229 247 4 354 184 182
321 316 293 283 276 183 68 67 215 259 331 337 60 147 238 213 193 166 191 206 206 175 180 162 255 299 276 66 76 16 44 251 110 160 14 232 281 235 302 324 323 14 41 26 16
329 313 274 244 218 117 71 244 257 262 343 11 67 63 310 250 169 153 196 222 223 188 159 213 283 218 267 77 12 120 170 13 17 343 323 287 295 251 262 266 309 51 30 10 51
317 348 282 190 158 57 157 243 285 289 13 21 34 357 299 306 208 189 214 312 222 248 157 163 140 274 13 57 173 64 52 44 112 139 190 309 283 238 193 214 232 90 348 24 112
332 318 349 150 63 77 185 217 331 303 351 309 17 286 291 360 23 98 168 185 301 177 128 159 147 150 193 306 197 159 161 150 128 227 189 150 276 343 8 72 113 152 121 62 128
293 259 325 226 164 276 284 289 254 287 1 358 1 49 346 5 25 48 12 29 17 85 132 196 18 52 360 351 357 275 191 135 128 109 186 144 261 159 79 66 177 163 166 182 204
26 324 313 45 146 168 287 280 318 291 301 301 295 329 16 353 5 38 350 1 43 82 121 88 107 146 179 211 188 301 307 200 148 112 180 227 280 209 199 131 324 316 107 193 210
117 250 225 273 284 221 156 280 321 313 254 24 320 6 353 334 19 26 7 358 24 2 57 95 129 173 212 237 5 352 328 244 201 183 169 220 199 270 186 194 233 278 316 306 216
182 28 347 282 286 176 152 256 244 296 6 270 206 331 54 76 114 339 20 32 354 344 52 13 250 91 328 357 7 327 300 57 31 316 351 72 0 293 81 50 264 231 286 291 285
269 298 114 269 326 73 218 215 261 74 288 115 78 99 39 339 271 262 207 206 231 256 175 132 120 75 279 356 10 355 339 51 92 88 71 175 195 165 169 235 246 258 228 247 257